Inquirer Daily News

Weather

Get conditions and forecasts for any City, State, ZIP code or Country:  
Northeast Philadelphia, PA
on Friday, January 25, 2013

Friday
Previous Day Next Day
Daily Summary
 ActualAverage (KTTN)Record (KTTN)
Temperature
Mean Temperature °F 31°F  
Max Temperature 21°F 39°F 64°F (1967)
Min Temperature 10°F 23°F 0°F (1945)
Degree Days
Heating Degree Days 50 34  
Month to date heating degree days 849  
Since 1 July heating degree days 2744  
Cooling Degree Days 0 0  
Month to date cooling degree days 0  
Year to date cooling degree days 0  
Moisture
Dew Point 7°F   
Average Humidity 69    
Maximum Humidity 93    
Minimum Humidity 40    
Precipitation
Precipitation 2.02 in 0.11 in 1.62 in (2010)
Month to date precipitation 2.56  
Year to date precipitation 2.56  
Wind
Wind Speed 6 mph   
Max Wind Speed 10 mph   
Max Gust Speed 18 mph   
Visibility 5 miles   
Events Fog , Snow   

Key: T is trace of precipitation, MM is missing value
Source: NWS Daily Summary
Time(EST)TemperatureDew PointHumidity Pressure Visibility Wind DirectionWind SpeedGust SpeedPrecipitationEvents Conditions
12:54 AM 17.1°F -2.9°F 41% 30.47 in 10.0 miles NW 10.4 mph - N/A   Clear
1:54 AM 16.0°F -2.9°F 43% 30.48 in 10.0 miles NW 9.2 mph - N/A   Clear
2:54 AM 16.0°F -2.9°F 43% 30.48 in 10.0 miles NW 10.4 mph 18.4 mph N/A   Clear
3:54 AM 15.1°F -2.0°F 47% 30.48 in 10.0 miles NW 6.9 mph - N/A   Clear
4:54 AM 15.1°F -0.9°F 49% 30.48 in 10.0 miles NNW 10.4 mph - N/A   Clear
5:54 AM 14.0°F -0.9°F 52% 30.46 in 10.0 miles WNW 6.9 mph - N/A   Clear
6:54 AM 14.0°F -0.0°F 54% 30.46 in 10.0 miles NNW 4.6 mph - N/A   Clear
7:54 AM 15.1°F -0.0°F 51% 30.45 in 10.0 miles WNW 8.1 mph - N/A   Clear
8:54 AM 16.0°F 1.0°F 52% 30.47 in 10.0 miles WNW 8.1 mph - N/A   Clear
9:54 AM 18.0°F 1.0°F 48% 30.45 in 10.0 miles NNW 4.6 mph - N/A   Clear
10:54 AM 19.0°F 1.9°F 47% 30.40 in 10.0 miles Calm Calm - N/A   Clear
11:54 AM 19.9°F 1.0°F 44% 30.38 in 10.0 miles NW 3.5 mph - N/A   Mostly Cloudy
12:54 PM 21.0°F 1.0°F 42% 30.34 in 10.0 miles Calm Calm - N/A   Mostly Cloudy
1:54 PM 21.9°F 1.9°F 42% 30.29 in 10.0 miles South 4.6 mph - N/A   Overcast
2:54 PM 21.9°F 1.0°F 40% 30.25 in 10.0 miles SSW 5.8 mph - N/A   Overcast
3:47 PM 19.4°F 8.6°F 63% 30.24 in 3.0 miles WSW 8.1 mph - 0.00 in Snow Light Snow
3:54 PM 19.9°F 10.9°F 68% 30.25 in 3.0 miles WSW 9.2 mph - 0.00 in Snow Light Snow
4:01 PM 19.4°F 12.2°F 74% 30.23 in 1.0 miles SSW 5.8 mph - 0.00 in Snow Light Snow
4:17 PM 19.4°F 14.0°F 80% 30.23 in 0.5 miles SSW 4.6 mph - 0.01 in Snow Snow
4:54 PM 18.0°F 15.1°F 88% 30.21 in 0.5 miles South 3.5 mph - 0.03 in Fog , Snow Snow
5:16 PM 17.6°F 15.8°F 93% 30.19 in 0.5 miles Calm Calm - 0.01 in Fog , Snow Snow
5:54 PM 18.0°F 15.1°F 88% 30.18 in 0.5 miles South 3.5 mph - 0.04 in Snow Light Snow
6:02 PM 17.6°F 15.8°F 93% 30.18 in 0.5 miles South 3.5 mph - 0.00 in Snow Light Snow
6:30 PM 19.4°F 15.8°F 86% 30.17 in 0.5 miles SSW 3.5 mph - 0.01 in Snow Light Snow
6:46 PM 19.4°F 15.8°F 86% 30.16 in 0.5 miles Variable 3.5 mph - 0.01 in Snow Light Snow
6:54 PM 18.0°F 14.0°F 84% 30.17 in 0.5 miles South 5.8 mph - 0.01 in Snow Light Snow
7:54 PM 18.0°F 12.9°F 81% 30.16 in 0.5 miles Calm Calm - 0.00 in   Overcast
8:54 PM 14.0°F 10.9°F 88% 30.13 in 0.5 miles Calm Calm - 0.27 in   Clear
9:04 PM 12.2°F 8.6°F 85% 30.12 in 2.5 miles Calm Calm - 0.05 in   Clear
9:19 PM 12.2°F 10.4°F 92% 30.12 in 4.0 miles Calm Calm - 0.23 in   Clear
9:43 PM 12.2°F 8.6°F 85% 30.11 in 5.0 miles Calm Calm - 0.45 in   Mostly Cloudy
9:54 PM 12.0°F 9.0°F 88% 30.11 in 3.0 miles Calm Calm - 0.45 in   Overcast
10:12 PM 10.4°F 8.6°F 92% 30.10 in 1.8 miles Calm Calm - 0.02 in   Mostly Cloudy
10:16 PM 10.4°F 8.6°F 92% 30.10 in 3.0 miles Calm Calm - 0.02 in   Mostly Cloudy
10:25 PM 10.4°F 8.6°F 92% 30.10 in 3.0 miles Calm Calm - 0.03 in   Scattered Clouds
10:54 PM 12.0°F 8.1°F 84% 30.11 in 3.0 miles Calm Calm - 0.36 in   Partly Cloudy
11:54 PM 12.9°F 9.0°F 84% 30.11 in 7.0 miles NNW 4.6 mph - 0.86 in   Clear
Astronomy
Sunrise:07:14 AM (EST) Moon Rise:04:05 PM (EST)
Sunset:05:10 PM (EST) Moon Set:05:52 AM (EST)
Moon Phase
Jan. 25 Jan. 26 Feb. 03 Feb. 10 Feb. 17

Copyright © 2014 The Weather Underground, Inc.